STARLINK-32428, 61666

Orbit data source: Space-Track

STARLINK-32428, 61666 is a payload satellite owned by SpaceX/Seattle (US) in LEO that was launched on Sat, 26 Oct 2024 UTC via an FALCON 9 launch vehicle from the Air Force Eastern Test Range (AFETR). Payload-class satellites include a variety of spacecraft equipped with specific instruments for various scientific and technological missions. These include communications satellites like Starlink; space stations such as the ISS; scientific satellites like the Hubble; Earth observation satellites from companies like Planet Labs, Umbra, and HawkEye 360; GPS; miniature CubeSats for education and research; and military/defense satellites.

Loading next visibility...
Identifier
61666, 2024-193F
Orbit
LEO
Country
Flag of USUS
Related business
Manufacturer
SpaceX/Seattle
Mission
Operational Commercial Communications
Bus & Motor
STARLINK V2M, Unknown motor
Mass
730 kg wet, ~700 kg dry
Launch date (UTC)
2024-10-26 (10 months ago)
Launch vehicle
FALCON 9
Launch site
Air Force Eastern Test Range (AFETR)
Object type
Payload
Rocket body
Debris
Shape & HBR
Box + 2 Pan, 14.5 m
Radar Cross Section
36.964 m², Large (>1 m²)

Expand to show TLE details & history
Last TLE update: 15 hours ago

TLE from 15 hours ago
0 STARLINK-32428
1 61666U 24193F   25243.32877198  .00000096  00000-0  15373-4 0  9993
2 61666  53.1579 255.0619 0001120  62.5184 297.5931 15.30196549 47386
Epoch: 2025-08-31T07:53Z
TLE epoch observation values (Epoch: 2025-08-31T07:53:25.899Z)
Latitude
0.00004°
Longitude
156.95373°
Altitude
475.769 km
Speed
7.629 km/s
True Right ascension
17h 00m 14s
True Declination
0° 00' 00"
Sunlit
Object was in daylight at epoch
Visualization orbit readout
Latitude
Unknown
Longitude
Unknown
Altitude
Unknown
Speed
Unknown
Apparent Right ascension
Unknown
Apparent Declination
Unknown
Sunlit
N/A
Visualization observer readout
Local Sidereal Time
14:08:58
Azimuth
Unknown
Elevation
Unknown
Doppler factor
Unknown
Orbital elements
Apogee altitude
476.25 km
Perigee altitude
474.715 km
Semi-major axis
6,853.619 km
Eccentricity
0.00011
Inclination
53.1579°
RAAN
255.0619°
Arg. of periapsis
62.5184°
True anomaly
297.58172°
Mean anomaly
297.5931°
Eccentric anomaly
297.58741°
Mean motion
3.82528 °/min
Orbital period
94.11 mins
BSTAR
0.000015373
Loading maneuver chart data...
Computing Atmospheric mass density...
Loading historical data...
Loading historical data...
Loading historical data...
Loading historical data...
Loading historical data...
Loading historical data...
Loading historical data...

Documentation

Showing up to 5 results
|